Вернуться в каталог

NIMBUS 2 DEB

АктивенLEO
NORAD 40645·DEBRIS·🇺🇸 United States

Запущен May 15, 1966 с Vandenberg Space Force Base

Loading…

Ближайшие Пролёты (ближайшие 24 часа)

TLE

УстаревающийSource: Space-Track

Эпоха: Sep 11, 2026, 15:15 UTC

1 40645U 66040BJ  26254.63581075 -.00000126  00000-0 -12970-3 0  9992
2 40645 100.4127 138.4875 0049865 345.1015  14.8643 13.45376557554537

Отслеживайте NIMBUS 2 DEB в реальном времени с AllMySat

Download on the App Store